Regional Weather Roundup
Issued by NWS

Home | Current Version | Previous Version | Text Only | Print | Product List | Glossary On
Versions: 1 2 3 4 5 6 7 8 9 10 11 12 13 14 15 16 17 18 19 20 21 22 23 24 25 26 27 28 29 30 31 32 33 34 35 36 37 38 39 40 41 42 43 44 45 46 47 48 49 50
000
ASUS43 KLSX 302307
RWRMO

WEATHER SUMMARY FOR MISSOURI
NATIONAL WEATHER SERVICE SPRINGFIELD MO
600 PM CDT THU JUL 30 2015

NOTE: "FAIR" INDICATES FEW OR NO CLOUDS BELOW 12,000 FEET WITH NO
       SIGNIFICANT WEATHER AND/OR OBSTRUCTIONS TO VISIBILITY.
       CURRENT SKY AND/OR WEATHER CONDITIONS ARE NOT AVAILABLE FOR
       CHILLICOTHE AND FARMINGTON.

MOZ001>031-035>038-043-044-053-054-310000-
...NORTHERN AND WESTERN MISSOURI...

CITY           SKY/WX    TMP DP  RH WIND       PRES   REMARKS
KANSAS CTY INT PTSUNNY   84  62  47 CALM      30.15F
KANSAS C DTWN  MOSUNNY   86  56  35 SW5       30.13F
LEE`S SUMMIT   PTSUNNY   85  62  46 W6        30.15F
ST JOSEPH      SUNNY     84  65  52 SW6       30.13F
CHILLICOTHE      N/A     88  65  46 VRB3      30.14F HX  90
KIRKSVILLE     SUNNY     86  62  44 W8        30.14F

$$
MOZ066>068-077>081-088>096-101>105-310000-
...SOUTHWEST MISSOURI...

CITY           SKY/WX    TMP DP  RH WIND       PRES   REMARKS
SPRINGFIELD    PTSUNNY   86  58  38 NE9       30.14F
JOPLIN         PTSUNNY   86  62  44 NE6       30.13F

$$
MOZ032>034-039>042-045>050-055>058-069>072-310000-
...CENTRAL MISSOURI...

CITY           SKY/WX    TMP DP  RH WIND       PRES   REMARKS
COLUMBIA       MOSUNNY   86  63  45 NW3       30.14F
JEFFERSON CITY PTSUNNY   87  57  35 SE3       30.12F
ROLLA          CLOUDY    86  59  39 NE3       30.14F
SEDALIA        PTSUNNY   87  58  37 SE3       30.16F
WHITEMAN AFB   PTSUNNY   86  59  40 SW1       30.13F
WARRENSBURG    PTSUNNY   82  63  51 W3        30.14S
OSAGE BEACH    PTSUNNY   84  61  45 CALM      30.15F

$$
MOZ051-052-059>065-310000-
...EAST CENTRAL MISSOURI...

CITY           SKY/WX    TMP DP  RH WIND       PRES   REMARKS
ST LOUIS INTL  PTSUNNY   88  62  41 NW7       30.11F
SPIRIT OF STL  PTSUNNY   85  67  54 W3        30.10F
ST CHARLES     PTSUNNY   88  61  40 NW9       30.09F

$$
MOZ072>076-082>087-097>100-106>115-310000-
...SOUTH CENTRAL AND SOUTHEAST MISSOURI...

CITY           SKY/WX    TMP DP  RH WIND       PRES   REMARKS
CAPE GIRARDEAU NOT AVBL
FARMINGTON     PTSUNNY   84  59  42 N5        30.16F
POPLAR BLUFF   MOSUNNY   85  64  49 N7        30.08S
WEST PLAINS    MOSUNNY   85  59  41 NE6       30.16F

$$


USA.gov is the U.S. government's official web portal to all federal, state and local government web resources and services.